DW5450 Weather Reports


time (UTC)temp
C
wind
direction
speed
KPH
gust
KPH
rain 1hr
cm
rain 24hr
cm
rain mn
cm
humidity
%
barometer
mb
20260507040032 23 143 0.0 1.6 0.00 0.00 0.00 82 1012.4
20260507034537 24 143 1.6 4.8 0.00 0.00 0.00 82 1012.4
20260507033029 24 144 0.0 3.2 0.00 0.00 0.00 82 1012.4
20260507031528 24 143 0.0 4.8 0.00 0.00 0.00 81 1012.2
20260507030028 24 154 0.0 6.4 0.00 0.00 0.00 81 1012.1
20260507024530 24 149 1.6 6.4 0.00 0.00 0.00 80 1012.0
20260507023026 25 119 0.0 4.8 0.00 0.00 0.00 80 1011.9
20260507021526 25 168 0.0 4.8 0.00 0.00 0.00 79 1011.9
20260507020030 25 169 1.6 8.0 0.00 0.00 0.00 79 1011.9
20260507014526 25 148 1.6 8.0 0.00 0.00 0.00 79 1011.9
20260507013025 25 165 3.2 11.3 0.00 0.00 0.00 78 1011.9
20260507011526 25 140 1.6 9.7 0.00 0.00 0.00 77 1011.8
20260507010032 25 165 3.2 9.7 0.00 0.00 0.00 77 1011.7
20260507004523 25 144 3.2 9.7 0.00 0.00 0.00 77 1011.7
20260507003023 26 107 3.2 12.9 0.00 0.00 0.00 76 1011.6
20260507001529 26 186 6.4 11.3 0.00 0.00 0.00 75 1011.6
20260507000027 26 150 6.4 14.5 0.00 0.00 0.00 75 1011.5
20260506234541 26 184 3.2 12.9 0.00 0.00 0.00 75 1011.5
20260506233022 27 141 8.0 16.1 0.00 0.00 0.00 75 1011.6
20260506231521 26 147 3.2 11.3 0.00 0.00 0.00 76 1011.5
20260506230020 27 171 4.8 12.9 0.00 0.00 0.00 75 1011.7
20260506224526 27 143 3.2 14.5 0.00 0.00 0.00 75 1011.6
20260506223021 27 123 4.8 19.3 0.00 0.00 0.00 75 1011.7
20260506221519 27 113 6.4 16.1 0.00 0.00 0.00 74 1011.7
20260506220031 27 153 6.4 22.5 0.00 0.00 0.00 74 1011.9
20260506214518 28 109 6.4 19.3 0.00 0.00 0.00 75 1012.0
20260506213017 27 151 9.7 17.7 0.00 0.00 0.00 75 1012.0
20260506211520 27 180 8.0 20.9 0.00 0.00 0.00 75 1012.2
20260506210017 27 170 9.7 17.7 0.00 0.00 0.00 75 1012.3
20260506204516 27 118 9.7 17.7 0.00 0.00 0.00 75 1012.4
20260506203016 27 214 8.0 17.7 0.00 0.00 0.00 75 1012.5
20260506201516 27 161 6.4 17.7 0.00 0.00 0.00 75 1012.7
20260506200014 27 111 6.4 19.3 0.00 0.00 0.00 75 1012.9
20260506194514 27 160 8.0 20.9 0.00 0.00 0.00 75 1013.1
20260506193012 27 166 6.4 19.3 0.00 0.00 0.00 74 1013.1
20260506191512 28 119 8.0 16.1 0.00 0.00 0.00 74 1013.2
20260506190012 28 117 9.7 22.5 0.00 0.00 0.00 72 1013.2
20260506184511 28 125 9.7 19.3 0.00 0.00 0.00 71 1013.4
20260506183010 28 174 6.4 17.7 0.00 0.00 0.00 71 1013.4
20260506181510 28 155 6.4 19.3 0.00 0.00 0.00 70 1013.5
20260506180009 28 161 6.4 17.7 0.00 0.00 0.00 70 1013.5
20260506174507 28 143 4.8 16.1 0.00 0.00 0.00 70 1013.4
20260506173007 28 141 6.4 14.5 0.00 0.00 0.00 67 1013.3
20260506171507 29 132 6.4 14.5 0.00 0.00 0.00 65 1013.3
20260506170006 29 213 4.8 17.7 0.00 0.00 0.00 64 1013.3
20260506164508 30 148 6.4 11.3 0.00 0.00 0.00 59 1013.3
20260506163001 29 291 0.0 8.0 0.00 0.00 0.00 59 1013.3
20260506161600 28 42 3.2 8.0 0.00 0.00 0.00 62 1013.1
20260506160108 28 68 1.6 16.1 0.00 0.00 0.00 67 1013.2
20260506154550 27 296 1.6 8.0 0.00 0.00 0.00 70 1013.1
20260506153046 26 45 3.2 9.7 0.00 0.00 0.00 71 1013.0
20260506151545 26 28 3.2 11.3 0.00 0.00 0.00 76 1013.0
20260506150039 25 22 3.2 8.0 0.00 0.00 0.00 79 1013.0
20260506144534 23 20 1.6 8.0 0.00 0.00 0.00 83 1013.0
20260506143034 22 328 0.0 4.8 0.00 0.00 0.00 85 1012.9
20260506141527 21 344 1.6 4.8 0.00 0.00 0.00 87 1012.8
20260506140022 20 334 0.0 4.8 0.00 0.00 0.00 88 1012.8
20260506134524 18 321 0.0 3.2 0.00 0.00 0.00 88 1012.7
20260506133022 18 321 0.0 3.2 0.00 0.00 0.00 88 1012.6
20260506131538 18 321 0.0 1.6 0.00 0.00 0.00 88 1012.4
20260506130033 18 321 0.0 4.8 0.00 0.00 0.00 88 1012.5
20260506124517 18 321 0.0 4.8 0.00 0.00 0.00 88 1012.4
20260506123015 18 315 1.6 4.8 0.00 0.00 0.00 88 1012.3
20260506121512 18 311 1.6 8.0 0.00 0.00 0.00 88 1011.9
20260506120016 18 306 3.2 6.4 0.00 0.00 0.00 88 1011.6
20260506114509 18 304 1.6 6.4 0.00 0.00 0.00 88 1011.5
20260506113009 18 309 0.0 8.0 0.00 0.00 0.00 88 1011.5
20260506111508 18 313 3.2 9.7 0.00 0.00 0.00 88 1011.2
20260506110007 18 9 0.0 3.2 0.00 0.00 0.00 88 1011.1
20260506104507 18 9 0.0 3.2 0.00 0.00 0.00 88 1011.0
20260506103006 18 9 1.6 4.8 0.00 0.00 0.00 88 1011.0
20260506101506 18 57 0.0 3.2 0.00 0.00 0.00 88 1010.9
20260506100004 18 59 0.0 3.2 0.00 0.00 0.00 88 1011.0
20260506094503 18 59 0.0 1.6 0.00 0.00 0.00 88 1011.0
20260506093004 18 59 0.0 3.2 0.00 0.00 0.00 88 1011.1
20260506091501 18 59 0.0 1.6 0.00 0.00 0.00 88 1011.2
20260506090059 18 59 0.0 0.0 0.00 0.00 0.00 87 1011.2
20260506084557 19 59 0.0 1.6 0.00 0.00 0.00 87 1011.2
20260506083058 20 59 0.0 0.0 0.00 0.00 0.00 87 1011.2
20260506081556 20 59 0.0 0.0 0.00 0.00 0.00 87 1011.2
20260506073048 20 59 1.6 3.2 0.00 0.00 0.00 87 1011.5
20260506071548 20 59 1.6 4.8 0.00 0.00 0.00 87 1011.5
20260506061542 21 65 0.0 0.0 0.00 0.00 0.00 86 1012.3
20260506044542 22 164 0.0 1.6 0.00 0.00 0.00 84 1012.2
20260506043039 22 164 0.0 0.0 0.00 0.00 0.00 84 1012.0
20260506041538 22 164 0.0 0.0 0.00 0.00 0.00 84 1011.8